GALAXY 25 (G-25)

Last updated on Jan. 27, 2020, 4:38 a.m. UTC

1 24812U 97026A   20026.78306812  .00000148  00000-0  00000+0 0  9998
2 24812   1.5894  91.6612 0003565 215.0782 133.5336  1.00271235 82976
UTC
Height (km)
Latitude
Longitude
Inclination
Orbital Period
UTC large
Height (km)
Speed (km/s)
/
Latitude / Longitude
Inclination (degrees)
Orbital Period (minutes)
Azimuth
Elevation
Range (km)
Doppler Factor
iOS Compass Heading
iOS Angle

Next 30 passes for location: Hong Kong

Rise time Rise Azimuth (degrees) Set time Set Azimuth (degrees) Duration Max altitude (degrees)

No matching passes for this satellites